Location: Namasale
(1.5000°N, 32.6167°E)
Time: 19:39:24
(UTC+00:00)

Courier 1B - Pass Details

Date: 20 April 2021
Orbit: 962 x 1209 km, 28.3° (Epoch: 10 May)

Event Time Altitude Azimuth Distance (km) Brightness Sun altitude
Rises 05:58:44 0° 234° (SW) 4,015 10.2 32.2°
Reaches altitude 10° 06:01:39 10° 231° (SW) 3,020 9.7 32.9°
Maximum altitude 06:09:01 67° 150° (SSE) 1,168 8.6 34.7°
Drops below altitude 10° 06:15:54 10° 68° (ENE) 2,830 11.3 36.3°
Sets 06:18:33 0° 66° (ENE) 3,748 11.5 37.0°
